Hourly Data Report for June 18, 2012

HALIFAX STANFIELD INT'L A
NOVA SCOTIA

44°52'48.060" N
63°30'00.050" W
145.40 m
8202250
71395
YHZ

Download Data

Hourly Data (June 2012)
Hourly Data Report for June 18, 2012
TIME
LST
Temp Definition
°C
Dew Point Definition
°C
Rel Hum Definition
%
Precip. Amount Definition
mm

Wind Dir Definition
10's deg

Wind Spd Definition
km/h
Visibility Definition
km
Stn Press Definition
kPa
Hmdx Definition


Wind Chill Definition


Weather Definition


00:00 8.2 6.9 92   16 9 6.4 100.62     Fog
01:00 8.1 6.8 91   16 6 16.1 100.61     Cloudy
02:00 8.0 6.7 91   16 6 16.1 100.62     Cloudy
03:00 7.8 6.4 91   18 6 16.1 100.60     Cloudy
04:00 7.0 6.2 95   19 6 16.1 100.58     Cloudy
05:00 7.4 6.1 91   14 4 16.1 100.56     Cloudy
06:00 7.6 6.4 92     0 16.1 100.60     Cloudy
07:00 8.3 6.9 91   4 6 16.1 100.63     Cloudy
08:00 8.9 7.2 89   10 6 24.1 100.63     Cloudy
09:00 10.0 7.3 83     0 24.1 100.55     Cloudy
10:00 11.6 8.2 80     0 24.1 100.55     Mostly Cloudy
11:00 14.3 8.3 67   7 9 24.1 100.52     Mainly Clear
12:00 16.5 7.9 57   13 9 24.1 100.47     Mainly Clear
13:00 17.8 8.3 54   15 7 24.1 100.45     Mainly Clear
14:00 17.4 9.8 61   13 15 24.1 100.45     Mainly Clear
15:00 17.6 9.3 58   18 13 24.1 100.43     Mainly Clear
16:00 17.0 9.2 60   15 15 24.1 100.45     Mainly Clear
17:00 15.7 9.2 65   18 15 24.1 100.42     Mostly Cloudy
18:00 14.4 8.9 70   18 15 24.1 100.40     Mostly Cloudy
19:00 12.9 8.7 76   14 13 24.1 100.40     Mostly Cloudy
20:00 11.0 8.5 85   16 9 24.1 100.40     Mostly Cloudy
21:00 9.3 8.1 92   16 13 24.1 100.46     Mostly Cloudy
22:00 9.2 8.3 94   15 9 16.1 100.47     Cloudy
23:00 8.9 8.1 95   18 13 12.9 100.46     Cloudy

Notes on Data Quality.

Legend

  • E = Estimated
  • M = Missing
  • NA = Not Available*
  • [empty] = Indicates an unobserved value
Date modified: